Location: Ferma
(41.9500°N, 44.5167°E)
Time: 18:04:37
(UTC+00:00)

CZ-2C R/B - Pass Details

Date: 02 June 2022
Orbit: 381 x 549 km, 35.0° (Epoch: 28 June)

Event Time Altitude Azimuth Distance (km) Brightness Sun altitude
Exits shadow 23:23:50 12° 135° (SE) 1,299 3.1 -17.7°
Drops below altitude 10° 23:24:25 10° 126° (SE) 1,427 3.4 -17.6°
Sets 23:27:11 0° 102° (ESE) 2,315 4.8 -17.3°
